This is the latest recevied weather packets stored in our database for station/object VK6NP-1. If no packets are shown the sender has not sent any weather packets the latest 10 day(s).
| Time | Temp. | Humidity | Pressure | Rain* | Wind** | Luminosity | Snow |
|---|---|---|---|---|---|---|---|
| 1777544044 | 17.22° C | 92% | 1018 hPa | 1.78 mm | 0 m/s | - | - |
| 1777543744 | 17.22° C | 91% | 1017.8 hPa | 1.78 mm | 0 m/s | - | - |
| 1777543445 | 17.78° C | 90% | 1017.8 hPa | 0 mm | 0 m/s | - | - |
| 1777543142 | 17.78° C | 89% | 1017.7 hPa | 0 mm | 0 m/s | - | - |
| 1777542842 | 17.78° C | 87% | 1017.6 hPa | 0 mm | 0 m/s | - | - |
| 1777542543 | 17.78° C | 86% | 1017.5 hPa | 0 mm | 0 m/s | - | - |
| 1777542239 | 18.33° C | 86% | 1017.3 hPa | 0 mm | 0 m/s | - | - |
| 1777541939 | 18.33° C | 85% | 1017.3 hPa | 0 mm | 0 m/s | - | - |
| 1777541640 | 18.89° C | 84% | 1017 hPa | 0 mm | 0 m/s | - | - |
| 1777541334 | 18.89° C | 83% | 1017.1 hPa | 0 mm | 0 m/s | - | - |
| 1777541034 | 19.44° C | 81% | 1017 hPa | 0 mm | 0 m/s | - | - |
| 1777540734 | 19.44° C | 80% | 1017.1 hPa | 0 mm | 0 m/s | - | - |
| 1777540432 | 20° C | 78% | 1017.1 hPa | 0 mm | 0 m/s | - | - |
| 1777540132 | 20° C | 74% | 1017 hPa | 0 mm | 0 m/s | - | - |
| 1777539832 | 20° C | 72% | 1016.9 hPa | 0 mm | 0 m/s | - | - |
| 1777539528 | 20° C | 71% | 1016.8 hPa | 0 mm | 0 m/s | - | - |
| 1777539229 | 20° C | 69% | 1016.7 hPa | 0 mm | 0 m/s | - | - |
| 1777538928 | 20.56° C | 68% | 1016.6 hPa | 0 mm | 0 m/s | - | - |
| 1777538624 | 20.56° C | 67% | 1016.6 hPa | 0 mm | 0 m/s | - | - |
| 1777538325 | 20.56° C | 66% | 1016.5 hPa | 0 mm | 0 m/s | - | - |
| 1777538025 | 20.56° C | 67% | 1016.6 hPa | 0 mm | 0 m/s | - | - |
| 1777537722 | 20.56° C | 66% | 1016.5 hPa | 0 mm | 0 m/s | - | - |
| 1777537423 | 21.11° C | 66% | 1016.5 hPa | 0 mm | 0 m/s | - | - |
| 1777537123 | 21.11° C | 66% | 1016.4 hPa | 0 mm | 0 m/s | - | - |
| 1777536819 | 21.11° C | 68% | 1016.4 hPa | 0 mm | 0 m/s | - | - |
* Rain latest hour (hover to see other rain measurements)
** Current wind speed in m/s (hover to see current wind gust speed)